Regional Weather Roundup
Issued by NWS Midland/Odessa, TX

Skip options and go directly to product.
Home | Oldest Version | Previous Version | Current Version | All | Text Only | Save Text | Print | Product List | Glossary On

Skip product version selection by date and time.   
876
ASUS44 KMAF 242010
RWRMAF
MIDLAND AREA WEATHER ROUNDUP
NATIONAL WEATHER SERVICE MIDLAND TX
300 PM CDT FRI JUN 24 2016

...IN SOUTHWEST TEXAS AND SOUTHEAST NEW MEXICO...

CITY           SKY/WX    TMP DP  RH WIND       PRES   REMARKS
ALPINE         SUNNY     90  48  23 E12G17    30.15F
ANDREWS        FAIR      93  51  23 SE12G23   30.05F
ARTESIA        SUNNY     93  57  29 S17G24    30.03F
BIG SPRING     SUNNY     90  59  34 SE13G18   30.05F
CARLSBAD       SUNNY     95  54  25 SE13G23   30.00F
DRYDEN           N/A     92  61  35 E14G22    29.99F
FORT STOCKTON  SUNNY     90  55  30 SE16G23   30.02F
GUAD PASS      SUNNY     89  47  23 NE20G25   30.18F
HOBBS          SUNNY     93  48  21 SE16      30.06F
MARFA          SUNNY    N/A N/A N/A NE13G18   30.12
MIDLAND AIRPK  SUNNY     94  53  24 S16G25    30.03F
MIDLAND INTL   SUNNY     93  55  27 SE17G28   30.02F
ODESSA         SUNNY     93  53  25 S15       30.04F
PECOS          SUNNY     98  47  18 E13G24    29.97F
PRESIDIO       FAIR      98  51  20 NE14G21   29.96F
SEMINOLE       SUNNY     93  49  21 S10G24    30.06F
SNYDER           N/A     89  63  41 SE15G21   30.04F
WINK           SUNNY     96  51  21 SE16G30   29.99F
$$
...OTHER STATIONS IN TEXAS...

CITY           SKY/WX    TMP DP  RH WIND       PRES   REMARKS
ABILENE        MOSUNNY   91  62  37 S13G20    30.02F
AMARILLO       SUNNY     94  59  31 S25G32    30.02F
AUSTIN         PTSUNNY   92  70  48 SE12G21   30.01F
BROWNSVILLE    MOSUNNY   93  73  52 SE16G23   29.98F HX 102
CORPUS CHRISTI PTSUNNY   91  74  57 SE17      30.00F HX 100
DALLAS FTW     MOSUNNY   94  64  37 S14       30.00F
DEL RIO        MOSUNNY   95  65  37 SE12G22   29.96F
EL PASO        MOSUNNY   97  46  17 VRB3      30.01F
HOUSTON INT    PTSUNNY   90  72  55 SE10      30.02F
LUBBOCK        PTSUNNY   95  54  25 SE15G30   30.04F
SAN ANGELO     PTSUNNY   93  62  35 SE10G18   30.01F
SAN ANTONIO    PTSUNNY   90  69  50 S9        30.02F
WACO           MOSUNNY   93  69  45 S14       30.01F
WICHITA FALLS  NOT AVBL
$$
...OTHER LOCATIONS IN NEW MEXICO...

CITY           SKY/WX    TMP DP  RH WIND       PRES   REMARKS
ALAMAGORDO     SUNNY     95  46  18 S8        30.04F
ALBUQUERQUE    MOSUNNY   92  44  19 CALM      30.10F
CANNON AFB     MOSUNNY   94  54  25 SW12G22   30.04F
CLOVIS         SUNNY     93  55  27 S12       30.05F
HOLLOMAN AFB   MOSUNNY   96  48  19 SE9       30.01F
ROSWELL        SUNNY     96  53  23 SE22G29   30.02F
RUIDOSO          N/A     68  54  60 S18       30.28S THUNDER
SANTA FE       SUNNY     89  41  18 VRB6G16   30.17F
TRUTH OR CONSE MOSUNNY   96  43  16 MISG      30.06F
TUCUMCARI      SUNNY     99  48  17 SW14G24   29.98F
$$

USA.gov is the U.S. government's official web portal to all federal, state and local government web resources and services.